• In Deutschland
  • Länderverzeichnis
  • Für 7 Tage
  • Wassertemperatur
  • Satellitenkarten
  • Wetterkarte
  • Widgets
  • user-avatar
    Anmelden

    Stündliche Wetter Polotsk

    Heute, 23 Juli, Sonntag

    Zeit Temperatur Niederschläge Wind Luftdruck Luftfeuchtigkeit
    00:00 +13°C° 0 mm 2 m/S 749 mmHg 88%
    01:00 +13°C° 0 mm 1 m/S 749 mmHg 90%
    02:00 +12°C° 0 mm 1 m/S 749 mmHg 92%
    03:00 +12°C° 0 mm 1 m/S 749 mmHg 92%
    04:00 +12°C° 0 mm 1 m/S 750 mmHg 92%
    05:00 +12°C° 0 mm 1 m/S 750 mmHg 93%
    06:00 +14°C° 0 mm 1 m/S 750 mmHg 85%
    07:00 +16°C° 0 mm 1 m/S 750 mmHg 78%
    08:00 +19°C° 0 mm 1 m/S 750 mmHg 70%
    09:00 +20°C° 0 mm 1 m/S 750 mmHg 64%
    10:00 +22°C° 0 mm 1 m/S 750 mmHg 58%
    11:00 +23°C° 0 mm 1 m/S 750 mmHg 51%
    12:00 +23°C° 0 mm 1 m/S 749 mmHg 50%
    13:00 +24°C° 0 mm 1 m/S 749 mmHg 48%
    14:00 +24°C° 0 mm 1 m/S 749 mmHg 46%
    15:00 +24°C° 0 mm 1 m/S 749 mmHg 48%
    16:00 +24°C° 0 mm 1 m/S 749 mmHg 50%
    17:00 +24°C° 0 mm 1 m/S 748 mmHg 51%
    18:00 +22°C° 0 mm 1 m/S 748 mmHg 58%
    19:00 +20°C° 0 mm 1 m/S 748 mmHg 64%
    20:00 +18°C° 0 mm 1 m/S 748 mmHg 71%
    21:00 +18°C° 0 mm 1 m/S 748 mmHg 73%
    22:00 +16°C° 0 mm 1 m/S 747 mmHg 75%
    23:00 +14°C° 0 mm 0 m/S 747 mmHg 77%

    Morgen, 24 Juli, Montag

    Zeit Temperatur Niederschläge Wind Luftdruck Luftfeuchtigkeit
    00:00 +14°C° 0 mm 1 m/S 747 mmHg 79%
    01:00 +14°C° 0 mm 1 m/S 747 mmHg 80%
    02:00 +13°C° 0 mm 1 m/S 747 mmHg 82%
    03:00 +13°C° 0 mm 1 m/S 746 mmHg 82%
    04:00 +13°C° 0 mm 1 m/S 746 mmHg 82%
    05:00 +14°C° 0 mm 1 m/S 746 mmHg 83%
    06:00 +15°C° 0 mm 1 m/S 746 mmHg 79%
    07:00 +17°C° 0 mm 2 m/S 746 mmHg 75%
    08:00 +18°C° 0 mm 2 m/S 745 mmHg 72%
    09:00 +19°C° 0,1 mm 2 m/S 745 mmHg 73%
    10:00 +19°C° 0,1 mm 2 m/S 745 mmHg 75%
    11:00 +19°C° 0,1 mm 2 m/S 745 mmHg 77%
    12:00 +19°C° 0,5 mm 2 m/S 744 mmHg 81%
    13:00 +18°C° 0,5 mm 2 m/S 744 mmHg 84%
    14:00 +18°C° 0,5 mm 2 m/S 744 mmHg 88%
    15:00 +18°C° 0,3 mm 2 m/S 743 mmHg 89%
    16:00 +18°C° 0,3 mm 2 m/S 743 mmHg 91%
    17:00 +18°C° 0,3 mm 2 m/S 743 mmHg 92%
    18:00 +18°C° 0,1 mm 2 m/S 743 mmHg 94%
    19:00 +17°C° 0,1 mm 2 m/S 743 mmHg 95%
    20:00 +17°C° 0,1 mm 2 m/S 743 mmHg 97%
    21:00 +16°C° 0 mm 2 m/S 742 mmHg 97%
    22:00 +15°C° 0 mm 1 m/S 742 mmHg 98%
    23:00 +15°C° 0 mm 1 m/S 742 mmHg 98%

    übermorgen, 25 Juli, Dienstag

    Zeit Temperatur Niederschläge Wind Luftdruck Luftfeuchtigkeit
    00:00 +15°C° 0 mm 1 m/S 742 mmHg 98%
    01:00 +15°C° 0 mm 1 m/S 742 mmHg 98%
    02:00 +15°C° 0 mm 2 m/S 742 mmHg 98%
    03:00 +15°C° 0 mm 1 m/S 742 mmHg 98%
    04:00 +15°C° 0 mm 1 m/S 742 mmHg 98%
    05:00 +15°C° 0 mm 1 m/S 742 mmHg 98%
    06:00 +16°C° 0 mm 1 m/S 742 mmHg 96%
    07:00 +17°C° 0 mm 2 m/S 742 mmHg 94%
    08:00 +18°C° 0 mm 2 m/S 742 mmHg 92%
    09:00 +19°C° 0 mm 2 m/S 742 mmHg 89%
    10:00 +20°C° 0 mm 2 m/S 742 mmHg 85%
    11:00 +21°C° 0 mm 2 m/S 742 mmHg 81%
    12:00 +21°C° 0 mm 2 m/S 742 mmHg 79%
    13:00 +23°C° 0 mm 2 m/S 741 mmHg 76%
    14:00 +24°C° 0 mm 2 m/S 741 mmHg 74%
    15:00 +24°C° 0,5 mm 2 m/S 741 mmHg 77%
    16:00 +23°C° 0,5 mm 2 m/S 741 mmHg 80%
    17:00 +23°C° 0,5 mm 2 m/S 741 mmHg 83%
    18:00 +21°C° 0,9 mm 2 m/S 741 mmHg 87%
    19:00 +20°C° 0,9 mm 2 m/S 741 mmHg 91%
    20:00 +19°C° 0,9 mm 2 m/S 740 mmHg 95%
    21:00 +19°C° 1,1 mm 2 m/S 740 mmHg 95%
    22:00 +18°C° 1,1 mm 2 m/S 740 mmHg 96%
    23:00 +18°C° 1,1 mm 2 m/S 740 mmHg 96%

    26 Juli, Mittwoch

    Zeit Temperatur Niederschläge Wind Luftdruck Luftfeuchtigkeit
    00:00 +18°C° 1,3 mm 3 m/S 740 mmHg 96%
    01:00 +18°C° 1,3 mm 3 m/S 740 mmHg 97%
    02:00 +18°C° 1,3 mm 3 m/S 739 mmHg 97%
    03:00 +18°C° 1,2 mm 3 m/S 739 mmHg 97%
    04:00 +18°C° 1,2 mm 3 m/S 739 mmHg 97%
    05:00 +18°C° 1,2 mm 2 m/S 739 mmHg 97%
    06:00 +19°C° 0,4 mm 2 m/S 739 mmHg 96%
    07:00 +20°C° 0,4 mm 2 m/S 739 mmHg 94%
    08:00 +21°C° 0,4 mm 2 m/S 739 mmHg 92%
    09:00 +21°C° 0,2 mm 3 m/S 739 mmHg 90%
    10:00 +22°C° 0,2 mm 3 m/S 739 mmHg 89%
    11:00 +24°C° 0,2 mm 3 m/S 739 mmHg 87%
    12:00 +25°C° 1,3 mm 3 m/S 739 mmHg 83%
    13:00 +26°C° 1,3 mm 3 m/S 739 mmHg 78%
    14:00 +28°C° 1,3 mm 3 m/S 739 mmHg 74%
    15:00 +27°C° 1,3 mm 2 m/S 738 mmHg 75%
    16:00 +27°C° 1,3 mm 2 m/S 738 mmHg 77%
    17:00 +27°C° 1,3 mm 2 m/S 738 mmHg 78%
    18:00 +26°C° 0,3 mm 2 m/S 738 mmHg 82%
    19:00 +25°C° 0,3 mm 2 m/S 738 mmHg 85%
    20:00 +23°C° 0,3 mm 2 m/S 738 mmHg 89%
    21:00 +23°C° 0,9 mm 2 m/S 738 mmHg 90%
    22:00 +21°C° 0,9 mm 3 m/S 738 mmHg 92%
    23:00 +20°C° 0,9 mm 3 m/S 738 mmHg 93%

    27 Juli, Donnerstag

    Zeit Temperatur Niederschläge Wind Luftdruck Luftfeuchtigkeit
    00:00 +20°C° 0 mm 3 m/S 738 mmHg 94%
    01:00 +19°C° 0 mm 3 m/S 738 mmHg 95%
    02:00 +19°C° 0 mm 4 m/S 739 mmHg 96%
    03:00 +19°C° 0 mm 3 m/S 739 mmHg 96%
    04:00 +19°C° 0 mm 3 m/S 739 mmHg 96%
    05:00 +18°C° 0 mm 3 m/S 739 mmHg 96%
    06:00 +19°C° 0 mm 3 m/S 739 mmHg 95%
    07:00 +19°C° 0 mm 3 m/S 739 mmHg 94%
    08:00 +19°C° 0 mm 3 m/S 740 mmHg 93%
    09:00 +20°C° 0 mm 3 m/S 740 mmHg 90%
    10:00 +21°C° 0 mm 4 m/S 740 mmHg 88%
    11:00 +21°C° 0 mm 4 m/S 740 mmHg 85%
    12:00 +22°C° 0 mm 4 m/S 741 mmHg 81%
    13:00 +23°C° 0 mm 4 m/S 741 mmHg 76%
    14:00 +25°C° 0 mm 4 m/S 741 mmHg 71%
    15:00 +25°C° 0 mm 4 m/S 741 mmHg 72%
    16:00 +25°C° 0 mm 4 m/S 741 mmHg 73%
    17:00 +25°C° 0 mm 4 m/S 741 mmHg 73%
    18:00 +24°C° 0 mm 3 m/S 741 mmHg 79%
    19:00 +21°C° 0 mm 2 m/S 741 mmHg 85%
    20:00 +20°C° 0 mm 2 m/S 741 mmHg 91%
    21:00 +19°C° 0 mm 2 m/S 741 mmHg 92%
    22:00 +19°C° 0 mm 2 m/S 741 mmHg 94%
    23:00 +18°C° 0 mm 2 m/S 741 mmHg 95%

    28 Juli, Freitag

    Zeit Temperatur Niederschläge Wind Luftdruck Luftfeuchtigkeit
    00:00 +18°C° 0 mm 2 m/S 741 mmHg 95%
    01:00 +17°C° 0 mm 2 m/S 741 mmHg 96%
    02:00 +17°C° 0 mm 2 m/S 741 mmHg 96%
    03:00 +17°C° 0,1 mm 2 m/S 741 mmHg 96%
    04:00 +18°C° 0,1 mm 1 m/S 741 mmHg 97%
    05:00 +18°C° 0,1 mm 1 m/S 742 mmHg 97%
    06:00 +19°C° 0,1 mm 1 m/S 742 mmHg 94%
    07:00 +20°C° 0,1 mm 1 m/S 742 mmHg 90%
    08:00 +22°C° 0,1 mm 1 m/S 742 mmHg 87%
    09:00 +21°C° 0,4 mm 2 m/S 742 mmHg 86%
    10:00 +21°C° 0,4 mm 2 m/S 742 mmHg 85%
    11:00 +22°C° 0,4 mm 3 m/S 743 mmHg 85%
    12:00 +22°C° 0,4 mm 3 m/S 743 mmHg 82%
    13:00 +24°C° 0,4 mm 3 m/S 743 mmHg 79%
    14:00 +24°C° 0,4 mm 3 m/S 743 mmHg 76%
    15:00 +24°C° 0,2 mm 3 m/S 743 mmHg 74%
    16:00 +25°C° 0,2 mm 3 m/S 743 mmHg 72%
    17:00 +25°C° 0,2 mm 2 m/S 743 mmHg 70%
    18:00 +24°C° 0,1 mm 2 m/S 743 mmHg 76%
    19:00 +21°C° 0,1 mm 2 m/S 743 mmHg 81%
    20:00 +20°C° 0,1 mm 2 m/S 743 mmHg 87%
    21:00 +19°C° 0 mm 2 m/S 743 mmHg 89%
    22:00 +18°C° 0 mm 2 m/S 744 mmHg 91%
    23:00 +17°C° 0 mm 2 m/S 744 mmHg 93%
    Mehr zeigen